| time (UTC) | temp F | wind direction | speed knots | gust knots | rain 1hr in | rain 24hr in | rain mn in | humidity % | barometer mb |
| 20260903113020 | 82 | 210 | 2.6 | 4.3 | 0.00 | 0.00 | 0.00 | 83 | 1014.8 |
| 20260903112515 | 82 | 193 | 1.7 | 2.6 | 0.00 | 0.00 | 0.00 | 84 | 1014.5 |
| 20260903112015 | 81 | 158 | 0.9 | 0.9 | 0.00 | 0.00 | 0.00 | 84 | 1014.8 |
| 20260903111509 | 81 | 168 | 2.6 | 4.3 | 0.00 | 0.00 | 0.00 | 84 | 1014.8 |
| 20260903111005 | 81 | 164 | 0.0 | 0.9 | 0.00 | 0.00 | 0.00 | 85 | 1014.8 |
| 20260903110501 | 81 | 244 | 1.7 | 1.7 | 0.00 | 0.00 | 0.00 | 85 | 1014.5 |
| 20260903110000 | 81 | 209 | 2.6 | 4.3 | 0.00 | 0.00 | 0.00 | 85 | 1014.8 |
| 20260903105455 | 81 | 178 | 6.1 | 7.8 | 0.00 | 0.00 | 0.00 | 85 | 1014.8 |
| 20260903104950 | 81 | 150 | 3.5 | 5.2 | 0.00 | 0.00 | 0.00 | 85 | 1014.8 |
| 20260903104449 | 81 | 234 | 2.6 | 5.2 | 0.00 | 0.00 | 0.00 | 85 | 1014.8 |
| 20260903103946 | 81 | 218 | 3.5 | 4.3 | 0.00 | 0.00 | 0.00 | 85 | 1014.5 |
| 20260903103442 | 81 | 174 | 2.6 | 2.6 | 0.00 | 0.00 | 0.00 | 85 | 1014.5 |
| 20260903102937 | 81 | 215 | 1.7 | 2.6 | 0.00 | 0.00 | 0.00 | 85 | 1014.5 |
| 20260903102433 | 81 | 202 | 0.9 | 0.9 | 0.00 | 0.00 | 0.00 | 85 | 1014.5 |
| 20260903101931 | 81 | 196 | 4.3 | 5.2 | 0.00 | 0.00 | 0.00 | 85 | 1014.5 |
| 20260903101426 | 81 | 226 | 0.9 | 0.9 | 0.00 | 0.00 | 0.00 | 85 | 1014.5 |
| 20260903100922 | 81 | 220 | 3.5 | 5.2 | 0.00 | 0.00 | 0.00 | 85 | 1014.5 |
| 20260903100417 | 82 | 171 | 2.6 | 2.6 | 0.00 | 0.00 | 0.00 | 85 | 1014.5 |
| 20260903095914 | 81 | 343 | 2.6 | 2.6 | 0.00 | 0.00 | 0.00 | 85 | 1014.5 |
| 20260903095409 | 82 | 183 | 3.5 | 4.3 | 0.00 | 0.00 | 0.00 | 85 | 1014.5 |
| 20260903094903 | 82 | 232 | 2.6 | 4.3 | 0.00 | 0.00 | 0.00 | 84 | 1014.5 |
| 20260903094357 | 82 | 175 | 0.9 | 1.7 | 0.00 | 0.00 | 0.00 | 84 | 1014.5 |
| 20260903093854 | 82 | 218 | 1.7 | 1.7 | 0.00 | 0.00 | 0.00 | 84 | 1014.5 |
| 20260903093348 | 82 | 257 | 0.9 | 1.7 | 0.00 | 0.00 | 0.00 | 84 | 1014.8 |
| 20260903092844 | 82 | 225 | 2.6 | 2.6 | 0.00 | 0.00 | 0.00 | 84 | 1014.5 |
| 20260903092338 | 82 | 170 | 0.9 | 1.7 | 0.00 | 0.00 | 0.00 | 84 | 1014.8 |
| 20260903091837 | 82 | 169 | 2.6 | 4.3 | 0.00 | 0.00 | 0.00 | 84 | 1014.8 |
| 20260903091336 | 82 | 194 | 1.7 | 1.7 | 0.00 | 0.00 | 0.00 | 84 | 1014.8 |
| 20260903090831 | 82 | 214 | 2.6 | 5.2 | 0.00 | 0.00 | 0.00 | 84 | 1014.8 |
| 20260903090327 | 82 | 105 | 0.9 | 1.7 | 0.00 | 0.00 | 0.00 | 84 | 1014.8 |
| 20260903085825 | 82 | 233 | 0.0 | 0.9 | 0.00 | 0.00 | 0.00 | 84 | 1014.8 |
| 20260903085324 | 82 | 256 | 0.9 | 2.6 | 0.00 | 0.00 | 0.00 | 84 | 1014.8 |
| 20260903084823 | 82 | 154 | 0.9 | 0.9 | 0.00 | 0.00 | 0.00 | 84 | 1014.5 |
| 20260903084323 | 82 | 188 | 2.6 | 2.6 | 0.00 | 0.00 | 0.00 | 84 | 1014.8 |
| 20260903083818 | 82 | 228 | 0.9 | 0.9 | 0.00 | 0.00 | 0.00 | 83 | 1014.8 |
| 20260903083314 | 82 | 202 | 3.5 | 4.3 | 0.00 | 0.00 | 0.00 | 83 | 1014.8 |
| 20260903082812 | 82 | 238 | 5.2 | 7.0 | 0.00 | 0.00 | 0.00 | 83 | 1014.8 |
| 20260903082308 | 82 | 154 | 0.9 | 0.9 | 0.00 | 0.00 | 0.00 | 83 | 1014.8 |
| 20260903081803 | 82 | 266 | 0.9 | 1.7 | 0.00 | 0.00 | 0.00 | 83 | 1014.8 |
| 20260903081258 | 82 | 174 | 0.0 | 0.9 | 0.00 | 0.00 | 0.00 | 83 | 1014.8 |
| 20260903080755 | 82 | 224 | 4.3 | 5.2 | 0.00 | 0.00 | 0.00 | 83 | 1014.8 |
| 20260903080252 | 82 | 159 | 3.5 | 6.1 | 0.00 | 0.00 | 0.00 | 83 | 1014.8 |
| 20260903075751 | 82 | 207 | 2.6 | 2.6 | 0.00 | 0.00 | 0.00 | 82 | 1014.8 |
| 20260903075246 | 82 | 171 | 4.3 | 7.0 | 0.00 | 0.00 | 0.00 | 82 | 1014.8 |
| 20260903074745 | 82 | 261 | 0.0 | 0.9 | 0.00 | 0.00 | 0.00 | 82 | 1014.8 |
| 20260903074240 | 82 | 162 | 1.7 | 4.3 | 0.00 | 0.00 | 0.00 | 81 | 1014.8 |
| 20260903073736 | 82 | 162 | 2.6 | 4.3 | 0.00 | 0.00 | 0.00 | 81 | 1015.2 |
| 20260903073231 | 82 | 190 | 1.7 | 2.6 | 0.00 | 0.00 | 0.00 | 81 | 1014.8 |
| 20260903072727 | 82 | 225 | 1.7 | 2.6 | 0.00 | 0.00 | 0.00 | 81 | 1015.2 |
| 20260903072223 | 82 | 219 | 2.6 | 2.6 | 0.00 | 0.00 | 0.00 | 80 | 1014.8 |
| 20260903071720 | 82 | 189 | 3.5 | 4.3 | 0.00 | 0.00 | 0.00 | 80 | 1014.8 |
| 20260903071215 | 82 | 217 | 1.7 | 1.7 | 0.00 | 0.00 | 0.00 | 80 | 1015.2 |
| 20260903070715 | 82 | 247 | 0.9 | 1.7 | 0.00 | 0.00 | 0.00 | 79 | 1015.2 |
| 20260903070210 | 83 | 196 | 2.6 | 4.3 | 0.00 | 0.00 | 0.00 | 79 | 1015.2 |
| 20260903065705 | 83 | 162 | 0.9 | 1.7 | 0.00 | 0.00 | 0.00 | 79 | 1015.2 |
| 20260903065159 | 83 | 197 | 0.9 | 0.9 | 0.00 | 0.00 | 0.00 | 78 | 1015.2 |
| 20260903064658 | 83 | 242 | 2.6 | 2.6 | 0.00 | 0.00 | 0.00 | 78 | 1014.8 |
| 20260903064154 | 83 | 220 | 2.6 | 4.3 | 0.00 | 0.00 | 0.00 | 78 | 1015.2 |
| 20260903063650 | 83 | 205 | 6.1 | 6.1 | 0.00 | 0.00 | 0.00 | 77 | 1015.2 |
| 20260903063150 | 83 | 206 | 4.3 | 7.0 | 0.00 | 0.00 | 0.00 | 77 | 1015.2 |
| 20260903062646 | 83 | 214 | 4.3 | 5.2 | 0.00 | 0.00 | 0.00 | 76 | 1015.5 |
| 20260903062140 | 83 | 219 | 2.6 | 2.6 | 0.00 | 0.00 | 0.00 | 75 | 1015.2 |
| 20260903061636 | 84 | 163 | 5.2 | 7.0 | 0.00 | 0.00 | 0.00 | 74 | 1015.2 |
| 20260903061135 | 84 | 218 | 1.7 | 1.7 | 0.00 | 0.00 | 0.00 | 74 | 1015.2 |
| 20260903060630 | 84 | 144 | 3.5 | 4.3 | 0.00 | 0.00 | 0.00 | 73 | 1015.2 |
| 20260903060126 | 84 | 275 | 1.7 | 1.7 | 0.00 | 0.00 | 0.00 | 73 | 1015.2 |
| 20260903055623 | 84 | 98 | 2.6 | 6.1 | 0.00 | 0.00 | 0.00 | 72 | 1015.2 |
| 20260903055122 | 83 | 173 | 4.3 | 5.2 | 0.00 | 0.00 | 0.00 | 72 | 1015.2 |
| 20260903054616 | 83 | 253 | 0.9 | 1.7 | 0.00 | 0.00 | 0.00 | 72 | 1015.2 |
| 20260903054112 | 83 | 198 | 2.6 | 4.3 | 0.00 | 0.00 | 0.00 | 72 | 1015.2 |
| 20260903053608 | 83 | 274 | 0.0 | 0.9 | 0.00 | 0.00 | 0.00 | 72 | 1015.2 |
| 20260903053104 | 83 | 158 | 0.9 | 0.9 | 0.00 | 0.00 | 0.00 | 73 | 1015.2 |
| 20260903052559 | 83 | 73 | 1.7 | 1.7 | 0.00 | 0.00 | 0.00 | 73 | 1015.2 |
| 20260903052054 | 83 | 216 | 2.6 | 2.6 | 0.00 | 0.00 | 0.00 | 73 | 1015.2 |
| 20260903051549 | 83 | 235 | 0.9 | 1.7 | 0.00 | 0.00 | 0.00 | 73 | 1015.2 |
| 20260903051045 | 83 | 224 | 0.9 | 1.7 | 0.00 | 0.00 | 0.00 | 73 | 1015.2 |
| 20260903050544 | 83 | 218 | 0.9 | 1.7 | 0.00 | 0.00 | 0.00 | 73 | 1015.2 |
| 20260903050039 | 83 | 229 | 0.9 | 1.7 | 0.00 | 0.00 | 0.00 | 73 | 1015.2 |
| 20260903045538 | 83 | 258 | 1.7 | 2.6 | 0.00 | 0.00 | 0.00 | 73 | 1015.2 |
| 20260903045036 | 83 | 275 | 1.7 | 2.6 | 0.00 | 0.00 | 0.00 | 73 | 1015.2 |
| 20260903044531 | 84 | 230 | 2.6 | 2.6 | 0.00 | 0.00 | 0.00 | 72 | 1015.5 |
| 20260903044026 | 84 | 116 | 3.5 | 5.2 | 0.00 | 0.00 | 0.00 | 72 | 1015.2 |
| 20260903043522 | 84 | 152 | 4.3 | 6.1 | 0.00 | 0.00 | 0.00 | 72 | 1015.2 |
| 20260903043021 | 84 | 137 | 5.2 | 7.0 | 0.00 | 0.00 | 0.00 | 70 | 1015.2 |
| 20260903042516 | 84 | 79 | 4.3 | 7.0 | 0.00 | 0.00 | 0.00 | 69 | 1014.8 |
| 20260903042012 | 84 | 151 | 3.5 | 4.3 | 0.00 | 0.00 | 0.00 | 69 | 1014.8 |
| 20260903041509 | 85 | 164 | 2.6 | 2.6 | 0.00 | 0.00 | 0.00 | 68 | 1014.8 |
| 20260903041003 | 84 | 101 | 2.6 | 6.1 | 0.00 | 0.00 | 0.00 | 69 | 1014.8 |
| 20260903040502 | 84 | 167 | 2.6 | 2.6 | 0.00 | 0.00 | 0.00 | 70 | 1014.8 |
| 20260903035959 | 84 | 188 | 1.7 | 4.3 | 0.00 | 0.00 | 0.00 | 70 | 1014.5 |
| 20260903035454 | 84 | 129 | 5.2 | 7.8 | 0.00 | 0.00 | 0.00 | 71 | 1014.5 |
| 20260903034949 | 84 | 156 | 2.6 | 2.6 | 0.00 | 0.00 | 0.00 | 71 | 1014.5 |
| 20260903034444 | 84 | 119 | 3.5 | 6.1 | 0.00 | 0.00 | 0.00 | 71 | 1014.5 |
| 20260903033944 | 84 | 100 | 2.6 | 2.6 | 0.00 | 0.00 | 0.00 | 71 | 1014.5 |
| 20260903033439 | 85 | 140 | 5.2 | 7.0 | 0.00 | 0.00 | 0.00 | 70 | 1014.5 |
| 20260903032934 | 85 | 127 | 4.3 | 6.1 | 0.00 | 0.00 | 0.00 | 69 | 1014.8 |
| 20260903032430 | 85 | 96 | 7.8 | 12.2 | 0.00 | 0.00 | 0.00 | 68 | 1014.5 |
| 20260903031925 | 85 | 80 | 4.3 | 6.1 | 0.00 | 0.00 | 0.00 | 67 | 1014.5 |
| 20260903031425 | 86 | 185 | 1.7 | 2.6 | 0.00 | 0.00 | 0.00 | 66 | 1014.8 |
| 20260903030920 | 86 | 156 | 4.3 | 7.0 | 0.00 | 0.00 | 0.00 | 65 | 1014.5 |
| 20260903030416 | 87 | 142 | 7.8 | 9.6 | 0.00 | 0.00 | 0.00 | 62 | 1014.5 |
| 20260903025912 | 88 | 38 | 6.1 | 8.7 | 0.00 | 0.00 | 0.00 | 58 | 1014.5 |
| 20260903025407 | 88 | 62 | 0.0 | 0.9 | 0.00 | 0.00 | 0.00 | 58 | 1014.1 |
| 20260903024902 | 88 | 197 | 0.9 | 1.7 | 0.00 | 0.00 | 0.00 | 57 | 1014.1 |
| 20260903024356 | 88 | 205 | 1.7 | 1.7 | 0.00 | 0.00 | 0.00 | 58 | 1013.8 |
| 20260903023851 | 88 | 140 | 0.9 | 0.9 | 0.00 | 0.00 | 0.00 | 58 | 1013.8 |
| 20260903023347 | 88 | 87 | 0.0 | 0.9 | 0.00 | 0.00 | 0.00 | 57 | 1013.5 |
| 20260903022842 | 89 | 206 | 1.7 | 2.6 | 0.00 | 0.00 | 0.00 | 57 | 1013.5 |
| 20260903022341 | 88 | 296 | 1.7 | 1.7 | 0.00 | 0.00 | 0.00 | 57 | 1013.5 |
| 20260903021840 | 88 | 116 | 2.6 | 4.3 | 0.00 | 0.00 | 0.00 | 57 | 1013.1 |
| 20260903021336 | 88 | 66 | 1.7 | 1.7 | 0.00 | 0.00 | 0.00 | 58 | 1013.1 |
| 20260903020835 | 88 | 116 | 1.7 | 2.6 | 0.00 | 0.00 | 0.00 | 58 | 1012.7 |
| 20260903020331 | 88 | 189 | 0.9 | 1.7 | 0.00 | 0.00 | 0.00 | 60 | 1012.7 |
| 20260903015825 | 88 | 199 | 0.9 | 0.9 | 0.00 | 0.00 | 0.00 | 60 | 1013.1 |
| 20260903015320 | 87 | 293 | 0.0 | 0.9 | 0.00 | 0.00 | 0.00 | 61 | 1012.4 |
| 20260903014815 | 88 | 85 | 0.0 | 0.0 | 0.00 | 0.00 | 0.00 | 60 | 1012.7 |
| 20260903014310 | 88 | 46 | 0.0 | 0.0 | 0.00 | 0.00 | 0.00 | 61 | 1012.7 |
| 20260903013805 | 88 | 77 | 0.9 | 0.9 | 0.00 | 0.00 | 0.00 | 61 | 1012.4 |
| 20260903013304 | 88 | 41 | 0.0 | 0.0 | 0.00 | 0.00 | 0.00 | 61 | 1012.4 |
| 20260903012803 | 88 | 141 | 0.0 | 0.9 | 0.00 | 0.00 | 0.00 | 60 | 1012.4 |
| 20260903012258 | 89 | 109 | 1.7 | 2.6 | 0.00 | 0.00 | 0.00 | 58 | 1012.4 |
| 20260903011757 | 89 | 70 | 0.0 | 0.0 | 0.00 | 0.00 | 0.00 | 57 | 1012.7 |
| 20260903011256 | 89 | 58 | 0.9 | 0.9 | 0.00 | 0.00 | 0.00 | 56 | 1012.4 |
| 20260903010752 | 90 | 346 | 3.5 | 4.3 | 0.00 | 0.00 | 0.00 | 56 | 1012.4 |
| 20260903010248 | 90 | 331 | 0.9 | 0.9 | 0.00 | 0.00 | 0.00 | 56 | 1012.4 |
| 20260903005746 | 90 | 40 | 0.9 | 0.9 | 0.00 | 0.00 | 0.00 | 55 | 1012.4 |
| 20260903005241 | 90 | 296 | 0.0 | 0.0 | 0.00 | 0.00 | 0.00 | 55 | 1012.4 |
| 20260903004737 | 91 | 65 | 0.0 | 0.0 | 0.00 | 0.00 | 0.00 | 55 | 1012.4 |
| 20260903004232 | 91 | 43 | 0.0 | 0.9 | 0.00 | 0.00 | 0.00 | 54 | 1012.4 |
| 20260903003727 | 91 | 340 | 1.7 | 1.7 | 0.00 | 0.00 | 0.00 | 54 | 1012.4 |
| 20260903003223 | 91 | 37 | 0.0 | 0.9 | 0.00 | 0.00 | 0.00 | 53 | 1012.7 |
| 20260903002717 | 92 | 53 | 3.5 | 4.3 | 0.00 | 0.00 | 0.00 | 52 | 1012.4 |
| 20260903002211 | 92 | 16 | 4.3 | 5.2 | 0.00 | 0.00 | 0.00 | 52 | 1012.4 |
| 20260903001707 | 92 | 3 | 4.3 | 5.2 | 0.00 | 0.00 | 0.00 | 51 | 1012.4 |
| 20260903001200 | 93 | 7 | 5.2 | 7.0 | 0.00 | 0.00 | 0.00 | 51 | 1012.4 |
| 20260903000656 | 94 | 348 | 6.1 | 7.0 | 0.00 | 0.00 | 0.00 | 49 | 1012.7 |
| 20260903000150 | 96 | 57 | 1.7 | 1.7 | 0.00 | 0.00 | 0.00 | 46 | 1012.7 |
| 20260902235648 | 100 | 55 | 0.0 | 0.9 | 0.00 | 0.00 | 0.00 | 40 | 1012.4 |
| 20260902235144 | 100 | 228 | 0.9 | 0.9 | 0.00 | 0.00 | 0.00 | 38 | 1012.0 |
| 20260902234638 | 100 | 243 | 0.9 | 1.7 | 0.00 | 0.00 | 0.00 | 38 | 1012.4 |
| 20260902234137 | 101 | 280 | 1.7 | 1.7 | 0.00 | 0.00 | 0.00 | 37 | 1012.4 |
| 20260902233632 | 101 | 238 | 2.6 | 2.6 | 0.00 | 0.00 | 0.00 | 38 | 1012.0 |
| 20260902233126 | 101 | 265 | 0.0 | 0.0 | 0.00 | 0.00 | 0.00 | 38 | 1012.4 |
| 20260902232626 | 101 | 270 | 0.9 | 1.7 | 0.00 | 0.00 | 0.00 | 38 | 1012.0 |
| 20260902232125 | 101 | 202 | 2.6 | 2.6 | 0.00 | 0.00 | 0.00 | 38 | 1012.4 |
| 20260902231624 | 102 | 183 | 0.9 | 1.7 | 0.00 | 0.00 | 0.00 | 36 | 1012.4 |
| 20260902231124 | 101 | 281 | 1.7 | 1.7 | 0.00 | 0.00 | 0.00 | 37 | 1012.0 |
| 20260902230620 | 101 | 210 | 1.7 | 2.6 | 0.00 | 0.00 | 0.00 | 36 | 1012.0 |
| 20260902230118 | 101 | 140 | 1.7 | 1.7 | 0.00 | 0.00 | 0.00 | 37 | 1012.0 |
| 20260902225614 | 102 | 259 | 3.5 | 4.3 | 0.00 | 0.00 | 0.00 | 36 | 1012.0 |
| 20260902225113 | 101 | 246 | 1.7 | 1.7 | 0.00 | 0.00 | 0.00 | 37 | 1012.0 |
| 20260902224612 | 102 | 249 | 1.7 | 1.7 | 0.00 | 0.00 | 0.00 | 37 | 1012.7 |
| 20260902224108 | 101 | 279 | 0.0 | 0.9 | 0.00 | 0.00 | 0.00 | 38 | 1012.0 |
| 20260902223604 | 101 | 208 | 0.9 | 1.7 | 0.00 | 0.00 | 0.00 | 37 | 1012.0 |
| 20260902223103 | 102 | 291 | 1.7 | 1.7 | 0.00 | 0.00 | 0.00 | 36 | 1012.0 |
| 20260902222602 | 103 | 288 | 0.9 | 0.9 | 0.00 | 0.00 | 0.00 | 35 | 1012.0 |
| 20260902222101 | 104 | 200 | 1.7 | 1.7 | 0.00 | 0.00 | 0.00 | 34 | 1012.0 |
| 20260902221555 | 104 | 278 | 0.9 | 2.6 | 0.00 | 0.00 | 0.00 | 34 | 1012.0 |
| 20260902221050 | 102 | 265 | 0.0 | 0.0 | 0.00 | 0.00 | 0.00 | 36 | 1012.4 |
| 20260902220546 | 102 | 199 | 3.5 | 5.2 | 0.00 | 0.00 | 0.00 | 35 | 1012.4 |
| 20260902220040 | 102 | 287 | 1.7 | 1.7 | 0.00 | 0.00 | 0.00 | 36 | 1012.4 |
| 20260902215536 | 102 | 234 | 3.5 | 4.3 | 0.00 | 0.00 | 0.00 | 37 | 1012.4 |
| 20260902215031 | 102 | 251 | 1.7 | 2.6 | 0.00 | 0.00 | 0.00 | 37 | 1012.4 |
| 20260902214526 | 103 | 202 | 1.7 | 1.7 | 0.00 | 0.00 | 0.00 | 37 | 1012.4 |
| 20260902214025 | 104 | 185 | 0.9 | 1.7 | 0.00 | 0.00 | 0.00 | 36 | 1012.4 |
| 20260902213521 | 103 | 231 | 2.6 | 2.6 | 0.00 | 0.00 | 0.00 | 37 | 1012.4 |
| 20260902213020 | 102 | 244 | 2.6 | 4.3 | 0.00 | 0.00 | 0.00 | 38 | 1012.7 |
| 20260902212516 | 101 | 194 | 3.5 | 7.0 | 0.00 | 0.00 | 0.00 | 39 | 1012.7 |
| 20260902212012 | 100 | 241 | 4.3 | 6.1 | 0.00 | 0.00 | 0.00 | 40 | 1012.7 |
| 20260902211508 | 101 | 210 | 1.7 | 1.7 | 0.00 | 0.00 | 0.00 | 39 | 1012.7 |
| 20260902211002 | 103 | 214 | 2.6 | 7.0 | 0.00 | 0.00 | 0.00 | 38 | 1012.7 |
| 20260902210456 | 103 | 226 | 2.6 | 2.6 | 0.00 | 0.00 | 0.00 | 37 | 1012.7 |
| 20260902205955 | 104 | 40 | 2.6 | 2.6 | 0.00 | 0.00 | 0.00 | 36 | 1012.7 |
| 20260902205450 | 104 | 206 | 0.0 | 0.9 | 0.00 | 0.00 | 0.00 | 34 | 1012.7 |
| 20260902204946 | 103 | 255 | 0.9 | 0.9 | 0.00 | 0.00 | 0.00 | 36 | 1012.7 |
| 20260902204445 | 102 | 248 | 0.0 | 0.9 | 0.00 | 0.00 | 0.00 | 37 | 1013.1 |
| 20260902203941 | 102 | 316 | 0.9 | 0.9 | 0.00 | 0.00 | 0.00 | 37 | 1013.5 |
| 20260902203436 | 103 | 222 | 1.7 | 1.7 | 0.00 | 0.00 | 0.00 | 36 | 1013.1 |
| 20260902202935 | 104 | 248 | 3.5 | 6.1 | 0.00 | 0.00 | 0.00 | 36 | 1013.5 |
| 20260902202431 | 103 | 222 | 0.9 | 0.9 | 0.00 | 0.00 | 0.00 | 37 | 1013.5 |
| 20260902201927 | 104 | 245 | 0.9 | 1.7 | 0.00 | 0.00 | 0.00 | 36 | 1013.5 |
| 20260902201422 | 101 | 293 | 0.9 | 0.9 | 0.00 | 0.00 | 0.00 | 38 | 1013.5 |
| 20260902200917 | 101 | 222 | 0.9 | 1.7 | 0.00 | 0.00 | 0.00 | 38 | 1013.5 |
| 20260902200412 | 103 | 215 | 0.0 | 0.9 | 0.00 | 0.00 | 0.00 | 37 | 1013.8 |
| 20260902195907 | 103 | 265 | 0.0 | 0.0 | 0.00 | 0.00 | 0.00 | 37 | 1013.8 |
| 20260902195402 | 102 | 214 | 2.6 | 4.3 | 0.00 | 0.00 | 0.00 | 37 | 1013.8 |
| 20260902194856 | 104 | 307 | 0.0 | 0.0 | 0.00 | 0.00 | 0.00 | 37 | 1014.1 |
| 20260902194357 | 104 | 283 | 0.9 | 1.7 | 0.00 | 0.00 | 0.00 | 37 | 1014.1 |
| 20260902193851 | 104 | 300 | 0.9 | 1.7 | 0.00 | 0.00 | 0.00 | 36 | 1014.1 |
| 20260902193348 | 103 | 259 | 0.0 | 0.0 | 0.00 | 0.00 | 0.00 | 36 | 1014.1 |
| 20260902192846 | 100 | 248 | 1.7 | 1.7 | 0.00 | 0.00 | 0.00 | 39 | 1014.5 |
| 20260902192345 | 100 | 167 | 2.6 | 2.6 | 0.00 | 0.00 | 0.00 | 39 | 1014.1 |
| 20260902191839 | 101 | 191 | 2.6 | 2.6 | 0.00 | 0.00 | 0.00 | 38 | 1014.5 |
| 20260902191335 | 103 | 192 | 3.5 | 6.1 | 0.00 | 0.00 | 0.00 | 37 | 1014.5 |
| 20260902190830 | 102 | 256 | 0.9 | 0.9 | 0.00 | 0.00 | 0.00 | 38 | 1014.5 |
| 20260902190329 | 104 | 175 | 1.7 | 2.6 | 0.00 | 0.00 | 0.00 | 37 | 1014.8 |
| 20260902185826 | 102 | 297 | 0.9 | 0.9 | 0.00 | 0.00 | 0.00 | 38 | 1014.8 |
| 20260902185321 | 104 | 238 | 3.5 | 4.3 | 0.00 | 0.00 | 0.00 | 36 | 1014.8 |
| 20260902184816 | 103 | 238 | 1.7 | 1.7 | 0.00 | 0.00 | 0.00 | 37 | 1014.8 |
| 20260902184312 | 101 | 78 | 2.6 | 5.2 | 0.00 | 0.00 | 0.00 | 39 | 1014.8 |
| 20260902183807 | 101 | 186 | 3.5 | 5.2 | 0.00 | 0.00 | 0.00 | 39 | 1015.2 |
| 20260902183303 | 102 | 193 | 0.9 | 0.9 | 0.00 | 0.00 | 0.00 | 39 | 1015.2 |
| 20260902182759 | 101 | 284 | 0.9 | 1.7 | 0.00 | 0.00 | 0.00 | 39 | 1015.5 |
| 20260902182255 | 100 | 177 | 2.6 | 2.6 | 0.00 | 0.00 | 0.00 | 40 | 1015.5 |
| 20260902181751 | 101 | 226 | 0.9 | 1.7 | 0.00 | 0.00 | 0.00 | 39 | 1015.5 |
| 20260902181246 | 100 | 198 | 1.7 | 1.7 | 0.00 | 0.00 | 0.00 | 40 | 1015.5 |
| 20260902180740 | 101 | 301 | 2.6 | 2.6 | 0.00 | 0.00 | 0.00 | 40 | 1015.5 |
| 20260902180236 | 100 | 224 | 0.9 | 1.7 | 0.00 | 0.00 | 0.00 | 40 | 1016.2 |
| 20260902175731 | 100 | 209 | 5.2 | 6.1 | 0.00 | 0.00 | 0.00 | 40 | 1015.8 |
| 20260902175227 | 100 | 187 | 2.6 | 2.6 | 0.00 | 0.00 | 0.00 | 41 | 1016.2 |
| 20260902174723 | 100 | 192 | 2.6 | 4.3 | 0.00 | 0.00 | 0.00 | 42 | 1016.2 |
| 20260902174218 | 99 | 221 | 2.6 | 4.3 | 0.00 | 0.00 | 0.00 | 42 | 1016.2 |
| 20260902173714 | 99 | 214 | 3.5 | 4.3 | 0.00 | 0.00 | 0.00 | 42 | 1016.2 |
| 20260902173208 | 98 | 195 | 0.9 | 1.7 | 0.00 | 0.00 | 0.00 | 44 | 1016.5 |
| 20260902172703 | 99 | 183 | 4.3 | 5.2 | 0.00 | 0.00 | 0.00 | 43 | 1016.5 |
| 20260902172202 | 98 | 160 | 0.9 | 1.7 | 0.00 | 0.00 | 0.00 | 44 | 1016.5 |
| 20260902171657 | 98 | 272 | 1.7 | 2.6 | 0.00 | 0.00 | 0.00 | 44 | 1016.5 |
| 20260902171153 | 100 | 261 | 0.9 | 0.9 | 0.00 | 0.00 | 0.00 | 43 | 1016.9 |
| 20260902170649 | 100 | 299 | 0.9 | 0.9 | 0.00 | 0.00 | 0.00 | 44 | 1016.9 |
| 20260902170144 | 98 | 181 | 0.9 | 0.9 | 0.00 | 0.00 | 0.00 | 45 | 1017.2 |
| 20260902165638 | 98 | 261 | 0.9 | 1.7 | 0.00 | 0.00 | 0.00 | 45 | 1016.9 |
| 20260902165133 | 97 | 275 | 0.9 | 0.9 | 0.00 | 0.00 | 0.00 | 46 | 1016.9 |
| 20260902164628 | 96 | 256 | 0.0 | 0.9 | 0.00 | 0.00 | 0.00 | 48 | 1017.2 |
| 20260902164127 | 96 | 161 | 3.5 | 5.2 | 0.00 | 0.00 | 0.00 | 48 | 1017.2 |
| 20260902163622 | 96 | 212 | 1.7 | 2.6 | 0.00 | 0.00 | 0.00 | 49 | 1017.2 |
| 20260902163121 | 95 | 204 | 1.7 | 2.6 | 0.00 | 0.00 | 0.00 | 50 | 1017.2 |
| 20260902162620 | 95 | 222 | 2.6 | 2.6 | 0.00 | 0.00 | 0.00 | 50 | 1017.2 |
| 20260902162115 | 94 | 260 | 0.9 | 1.7 | 0.00 | 0.00 | 0.00 | 51 | 1017.2 |
| 20260902161610 | 94 | 190 | 2.6 | 4.3 | 0.00 | 0.00 | 0.00 | 51 | 1017.2 |
| 20260902161106 | 94 | 188 | 2.6 | 4.3 | 0.00 | 0.00 | 0.00 | 51 | 1017.2 |
| 20260902160602 | 96 | 148 | 0.9 | 1.7 | 0.00 | 0.00 | 0.00 | 50 | 1017.2 |
| 20260902160057 | 94 | 262 | 0.9 | 1.7 | 0.00 | 0.00 | 0.00 | 50 | 1016.9 |
| 20260902155549 | 92 | 206 | 2.6 | 2.6 | 0.00 | 0.00 | 0.00 | 53 | 1017.2 |
| 20260902155048 | 93 | 176 | 2.6 | 4.3 | 0.00 | 0.00 | 0.00 | 53 | 1017.2 |
| 20260902154544 | 92 | 139 | 2.6 | 2.6 | 0.00 | 0.00 | 0.00 | 54 | 1017.2 |
| 20260902154039 | 93 | 197 | 5.2 | 6.1 | 0.00 | 0.00 | 0.00 | 52 | 1017.2 |
| 20260902153537 | 93 | 260 | 0.9 | 0.9 | 0.00 | 0.00 | 0.00 | 53 | 1017.2 |
| 20260902153033 | 93 | 190 | 2.6 | 2.6 | 0.00 | 0.00 | 0.00 | 54 | 1017.2 |
| 20260902152529 | 92 | 132 | 1.7 | 1.7 | 0.00 | 0.00 | 0.00 | 56 | 1017.2 |
| 20260902152025 | 91 | 255 | 0.9 | 0.9 | 0.00 | 0.00 | 0.00 | 57 | 1017.2 |
| 20260902151520 | 91 | 269 | 0.0 | 0.9 | 0.00 | 0.00 | 0.00 | 57 | 1017.2 |
| 20260902151019 | 90 | 274 | 1.7 | 2.6 | 0.00 | 0.00 | 0.00 | 58 | 1017.2 |
| 20260902150515 | 89 | 317 | 1.7 | 2.6 | 0.00 | 0.00 | 0.00 | 60 | 1017.2 |
| 20260902150010 | 90 | 258 | 1.7 | 1.7 | 0.00 | 0.00 | 0.00 | 59 | 1017.2 |
| 20260902145505 | 89 | 289 | 0.0 | 0.9 | 0.00 | 0.00 | 0.00 | 61 | 1017.2 |
| 20260902144959 | 88 | 246 | 1.7 | 1.7 | 0.00 | 0.00 | 0.00 | 63 | 1017.2 |
| 20260902144456 | 87 | 196 | 0.9 | 1.7 | 0.00 | 0.00 | 0.00 | 66 | 1017.2 |
| 20260902143950 | 87 | 201 | 5.2 | 7.0 | 0.00 | 0.00 | 0.00 | 65 | 1017.2 |
| 20260902143445 | 87 | 222 | 2.6 | 2.6 | 0.00 | 0.00 | 0.00 | 65 | 1017.5 |
| 20260902142940 | 87 | 202 | 2.6 | 4.3 | 0.00 | 0.00 | 0.00 | 66 | 1017.2 |
| 20260902142436 | 87 | 234 | 2.6 | 4.3 | 0.00 | 0.00 | 0.00 | 66 | 1017.2 |
| 20260902141932 | 88 | 287 | 1.7 | 1.7 | 0.00 | 0.00 | 0.00 | 65 | 1017.5 |
| 20260902141427 | 87 | 242 | 3.5 | 5.2 | 0.00 | 0.00 | 0.00 | 67 | 1017.2 |
| 20260902140926 | 87 | 193 | 3.5 | 6.1 | 0.00 | 0.00 | 0.00 | 67 | 1017.5 |
| 20260902140422 | 86 | 256 | 0.0 | 0.0 | 0.00 | 0.00 | 0.00 | 68 | 1017.2 |
| 20260902135921 | 86 | 237 | 1.7 | 2.6 | 0.00 | 0.00 | 0.00 | 69 | 1017.2 |
| 20260902135418 | 85 | 242 | 0.0 | 0.9 | 0.00 | 0.00 | 0.00 | 69 | 1017.2 |
| 20260902134916 | 84 | 254 | 0.9 | 0.9 | 0.00 | 0.00 | 0.00 | 70 | 1017.2 |
| 20260902134412 | 84 | 262 | 0.0 | 0.0 | 0.00 | 0.00 | 0.00 | 72 | 1017.2 |
| 20260902133913 | 84 | 265 | 0.9 | 0.9 | 0.00 | 0.00 | 0.00 | 72 | 1017.2 |
| 20260902133407 | 82 | 206 | 1.7 | 1.7 | 0.00 | 0.00 | 0.00 | 73 | 1017.5 |
| 20260902132902 | 82 | 250 | 1.7 | 1.7 | 0.00 | 0.00 | 0.00 | 75 | 1017.2 |
| 20260902132357 | 81 | 223 | 0.9 | 0.9 | 0.00 | 0.00 | 0.00 | 76 | 1017.2 |
| 20260902131852 | 81 | 217 | 1.7 | 2.6 | 0.00 | 0.00 | 0.00 | 76 | 1017.2 |
| 20260902131349 | 80 | 232 | 0.9 | 0.9 | 0.00 | 0.00 | 0.00 | 78 | 1017.2 |
| 20260902130848 | 80 | 227 | 1.7 | 1.7 | 0.00 | 0.00 | 0.00 | 79 | 1017.2 |
| 20260902130344 | 79 | 236 | 0.0 | 0.0 | 0.00 | 0.00 | 0.00 | 81 | 1016.9 |
| 20260902125839 | 79 | 264 | 0.0 | 0.9 | 0.00 | 0.00 | 0.00 | 81 | 1016.9 |
| 20260902125335 | 78 | 200 | 1.7 | 2.6 | 0.00 | 0.00 | 0.00 | 82 | 1016.9 |
| 20260902124831 | 78 | 250 | 0.9 | 0.9 | 0.00 | 0.00 | 0.00 | 82 | 1016.9 |
| 20260902124326 | 78 | 204 | 0.0 | 0.0 | 0.00 | 0.00 | 0.00 | 83 | 1016.9 |
| 20260902123821 | 77 | 206 | 0.9 | 1.7 | 0.00 | 0.00 | 0.00 | 84 | 1016.9 |
| 20260902123318 | 77 | 248 | 0.0 | 0.0 | 0.00 | 0.00 | 0.00 | 85 | 1016.9 |
| 20260902122816 | 77 | 242 | 0.0 | 0.0 | 0.00 | 0.00 | 0.00 | 85 | 1016.5 |
| 20260902122313 | 77 | 241 | 0.0 | 0.0 | 0.00 | 0.00 | 0.00 | 85 | 1016.9 |
| 20260902121812 | 77 | 242 | 0.0 | 0.0 | 0.00 | 0.00 | 0.00 | 85 | 1016.5 |
| 20260902121307 | 77 | 229 | 0.0 | 0.0 | 0.00 | 0.00 | 0.00 | 85 | 1016.5 |
| 20260902120803 | 77 | 213 | 0.9 | 0.9 | 0.00 | 0.00 | 0.00 | 84 | 1016.5 |
| 20260902120259 | 78 | 235 | 0.0 | 0.0 | 0.00 | 0.00 | 0.00 | 83 | 1016.5 |
| 20260902115754 | 77 | 247 | 0.0 | 0.0 | 0.00 | 0.00 | 0.00 | 83 | 1016.5 |
| 20260902115250 | 77 | 246 | 0.0 | 0.0 | 0.00 | 0.00 | 0.00 | 84 | 1016.5 |
| 20260902114746 | 77 | 246 | 0.0 | 0.0 | 0.00 | 0.00 | 0.00 | 85 | 1016.2 |
| 20260902114242 | 77 | 247 | 0.0 | 0.9 | 0.00 | 0.00 | 0.00 | 85 | 1016.2 |
| 20260902113742 | 77 | 270 | 0.0 | 0.0 | 0.00 | 0.00 | 0.00 | 84 | 1016.2 |